Regional Weather Roundup
Issued by NWS Charleston, SC

Current Version | Previous Version | Text Only | Print | Product List | Glossary Off
Versions: 1 2 3 4 5 6 7 8 9 10 11 12 13 14 15 16 17 18 19 20 21 22 23 24 25 26 27 28 29 30 31 32 33 34 35 36 37 38 39 40 41 42 43 44 45 46 47 48 49 50

000
ASUS42 KCHS 030427
RWRCHS

REGIONAL WEATHER ROUNDUP
NATIONAL WEATHER SERVICE CHARLESTON SC
1200 AM EDT THU SEP 03 2015

NOTE: "FAIR" INDICATES FEW OR NO CLOUDS BELOW 12,000 FEET WITH NO
SIGNIFICANT WEATHER AND/OR OBSTRUCTIONS TO VISIBILITY.

NOT ALL STATIONS ARE QUALITY CONTROLLED BY THE NATIONAL
WEATHER SERVICE. USE DATA WITH CAUTION...ESPECIALLY
DEWPOINT OBSERVATIONS.

SCZ027-030-031-034>040-042>050-030500-
...SOUTHEAST SOUTH CAROLINA...

CITY           SKY/WX    TMP DP  RH WIND       PRES   REMARKS
N CHARLESTON   PTCLDY    78  74  87 CALM      29.99S
WATERFRONT PRK   N/A     80  77  90 VRB3      29.96F
MOUNT PLEASANT LGT RAIN  77  75  94 CALM      29.99S
JOHNS ISLAND   FAIR      79  77  94 CALM      29.98F
PINOPOLIS        N/A     82  75  78 SW7       29.93S
MONCKS CORNER  FAIR      77  73  88 CALM      29.99F
SUMMERVILLE    FAIR      75  75 100 CALM      30.00F
BEAUFORT MCAS  PTCLDY    76  74  93 CALM      29.99F
BEAUFORT ARPT  FAIR      77  77 100 CALM      29.98F FOG
HILTON HEAD IS MOCLDY    75  75 100 MISG      30.00S
WALTERBORO     PTCLDY    77  72  83 N3        30.00S
ALLENDALE      FAIR      75  73  94 CALM      29.99S

...SOUTHERN MIDLANDS AND PEE DEE...

CITY           SKY/WX    TMP DP  RH WIND       PRES   REMARKS
GEORGETOWN     NOT AVBL
KINGSTREE      NOT AVBL
ORANGEBURG     PTCLDY    76  72  87 CALM      30.00F
BARNWELL       FAIR      75  73  94 CALM      30.00F
AIKEN          FAIR      73  70  88 CALM      30.04F
MANNING        FAIR      77  72  83 SW3       30.00S
COLUMBIA       PTCLDY    79  71  76 SW5       29.99F
SUMTER         CLEAR     78  72  83 SW5       29.98S
FLORENCE       CLEAR     79  73  82 SW7       29.99S
MYRTLE BEACH   PTCLDY    79  72  78 W6        30.01S
N MYRTLE BEACH PTCLDY    79  73  82 SW5       29.99R

$$

GAZ063-065-086>088-099>101-113>116-118-119-134>141-150-030500-
...SOUTHEAST GEORGIA...

CITY           SKY/WX    TMP DP  RH WIND       PRES   REMARKS
SAVANNAH ARPT  CLOUDY    76  74  93 E5        29.99F
HUNTER AAF     MOCLDY    76  76 100 S2        29.97F
FORT STEWART   PTCLDY    74  72  93 CALM      29.97F
STATESBORO     PTCLDY    73  32  22 CALM      29.99F
SYLVANIA       NOT AVBL
CLAXTON        NOT AVBL

...CSRA...CENTRAL AND FAR SOUTHEAST GEORGIA...

CITY           SKY/WX    TMP DP  RH WIND       PRES   REMARKS
THOMSON        PTCLDY    76  76  99 CALM      30.05F
AUGUSTA-BUSH   CLEAR     74  73  97 CALM      29.99F
AUGUSTA-DANIEL CLEAR     79  71  76 SW3       30.01F
SWAINSBORO     FAIR      75  72  88 CALM      30.00F
VIDALIA        CLEAR     73  72  94 CALM      29.99F
EASTMAN        MOCLDY    75  75 100 CALM      30.02F FOG
HAZLEHURST     FAIR      75  75 100 CALM      29.99S
ALMA           CLOUDY    74  73  97 CALM      29.98F
WAYCROSS       CLOUDY    77  77 100 W3        29.92F
JESUP          CLOUDY    77  77 100 CALM      29.98F
BAXLEY         CLOUDY    77  73  88 CALM      29.98F
BRUNSWICK      CLOUDY    73  73 100 CALM      29.98F
SAINT SIMONS   MOCLDY    76  75  97 CALM      29.98S

$$

SCZ027-028-034-036>038-045-046-048>050-GAZ119-141-030500-
...LAKE AND SUPPLEMENTAL COASTAL OBSERVATIONS...

STATION/POSITION TIME  TEMP    WIND        PRES    WAVE   SWELL
                       AIR SEA DIR/SP/G            HT/PER HT/PER/DIR
                 (UTC) (F)     (DEG/KT/KT) (MB)    (FT/S) (FT/S/D)
UPR LAKE MARION  NOT AVBL
WINYAH BAY       0300   79     250/  4     1015.0
LAKE MURRAY      0300   83     220/  9/ 12 1015.2R
ACE BASIN NERRS  NOT AVBL
FORT PULASKI     0400   78 83   40/  3/  3 1015.9F
SAPELO ISLAND    0400   77      80/  4     1015.0F

$$

ANZ835-935-AMZ111-154-330-350-352-354-370-450-454-472-030500-
...C-MAN AND BUOY OBSERVATIONS...

STATION/POSITION TIME  TEMP    WIND        PRES    WAVE   SWELL
                       AIR SEA DIR/SP/G            HT/PER HT/PER/DIR
                 (UTC) (F)     (DEG/KT/KT) (MB)    (FT/S) (FT/S/D)
BUOY 41004       0350   82 84  230/  4/  6 1015.1F   2/ 9   2/ 9
BUOY 41008       0350   81 84  120/  8/ 12 1015.6F   2/ 9   2/110/ 9
FOLLY BEACH CMAN 0400   80     260/  3/  3 1015.4F
CAPERS NEARSHORE 0308   82     240/ 10/ 12 1015.7S
FRIPP NEARSHORE  0300   82     250/  4/  4 1015.5


STATION/POSITION TIME  TEMP    WIND        PRES    WAVE   SWELL
                       AIR SEA DIR/SP/G            HT/PER HT/PER/DIR
                 (UTC) (F)     (DEG/KT/KT) (MB)    (FT/S) (FT/S/D)
5E ST. MARYS GA  0321      85                N/A     2/ 9
FRYING PAN BUOY  0350   82 81  240/ 12/ 14 1015.8R   2/ 9   2/ 90/ 9
BUOY 41025       0350   82 86  200/  4/  4 1014.5F   1/13   2/ 10/13
CAPE LOOKOUT NC  0400   80     230/  6/  7 1014.6F
BUOY 41002       0350   82 84  330/  2/  4 1015.2F   2/13   2/ 50/13
BUOY 41010       0320   84 87   90/  4/  6 1016.7S
ST AUGUSTINE FL  0400   78 83  210/  7/  8 1016.4F


$$


USA.gov is the U.S. government's official web portal to all federal, state and local government web resources and services.